GW3504 Weather Reports


time (UTC)temp
F
wind
direction
speed
knots
gust
knots
rain 1hr
in
rain 24hr
in
rain mn
in
humidity
%
barometer
mb
20260503231028 80 5 0.9 4.3 0.00 0.00 0.00 34 1008.6
20260503230521 80 19 0.9 3.5 0.00 0.00 0.00 34 1008.5
20260503230038 80 19 0.9 6.1 0.00 0.00 0.00 35 1008.6
20260503225523 80 20 1.7 6.1 0.00 0.00 0.00 33 1008.7
20260503225023 81 11 1.7 4.3 0.00 0.00 0.00 34 1008.6
20260503224536 81 296 0.0 4.3 0.00 0.00 0.00 32 1008.7
20260503224021 81 0 0.9 4.3 0.00 0.00 0.00 34 1008.6
20260503223520 81 352 0.9 8.7 0.00 0.00 0.00 32 1008.8
20260503223039 81 315 4.3 8.7 0.00 0.00 0.00 32 1008.7
20260503222523 82 0 0.0 7.8 0.00 0.00 0.00 31 1008.7
20260503222023 82 321 1.7 7.8 0.00 0.00 0.00 31 1008.7
20260503221539 82 288 0.9 7.8 0.00 0.00 0.00 33 1008.6
20260503221023 82 248 2.6 7.8 0.00 0.00 0.00 32 1008.8
20260503220522 82 310 0.9 12.2 0.00 0.00 0.00 33 1008.8
20260503220036 82 351 1.7 12.2 0.00 0.00 0.00 34 1009.0
20260503215523 82 308 3.5 9.6 0.00 0.00 0.00 32 1009.0
20260503215024 82 340 1.7 9.6 0.00 0.00 0.00 34 1009.0
20260503214540 82 351 3.5 9.6 0.00 0.00 0.00 33 1009.2
20260503214023 82 283 1.7 11.3 0.00 0.00 0.00 33 1009.2
20260503213523 82 281 5.2 11.3 0.00 0.00 0.00 33 1009.2
20260503213038 82 273 3.5 11.3 0.00 0.00 0.00 32 1009.4
20260503212525 83 274 2.6 13.0 0.00 0.00 0.00 31 1009.4
20260503212023 83 301 2.6 13.9 0.00 0.00 0.00 30 1009.4
20260503211539 82 301 5.2 13.9 0.00 0.00 0.00 31 1009.4
20260503211023 83 316 1.7 11.3 0.00 0.00 0.00 31 1009.5
20260503210522 83 306 1.7 11.3 0.00 0.00 0.00 31 1009.6
20260503210036 82 213 3.5 13.9 0.00 0.00 0.00 30 1009.8
20260503205524 82 270 4.3 13.9 0.00 0.00 0.00 29 1009.8
20260503205023 82 302 5.2 12.2 0.00 0.00 0.00 28 1010.0
20260503204545 82 178 3.5 11.3 0.00 0.00 0.00 32 1010.0
20260503204021 83 335 5.2 11.3 0.00 0.00 0.00 31 1010.0
20260503203523 83 290 2.6 10.4 0.00 0.00 0.00 31 1010.1
20260503203052 83 301 4.3 9.6 0.00 0.00 0.00 31 1010.1
20260503202522 83 290 1.7 7.8 0.00 0.00 0.00 32 1010.2
20260503202028 82 46 1.7 9.6 0.00 0.00 0.00 33 1010.3
20260503201537 83 184 3.5 9.6 0.00 0.00 0.00 31 1010.4
20260503201023 83 0 0.0 9.6 0.00 0.00 0.00 33 1010.4
20260503200523 82 0 1.7 10.4 0.00 0.00 0.00 33 1010.4
20260503200039 82 300 2.6 11.3 0.00 0.00 0.00 36 1010.6
20260503195524 81 0 5.2 11.3 0.00 0.00 0.00 33 1010.6
20260503195027 82 277 1.7 7.8 0.00 0.00 0.00 36 1010.7
20260503194552 82 267 1.7 9.6 0.00 0.00 0.00 35 1010.7
20260503194023 81 140 1.7 9.6 0.00 0.00 0.00 35 1010.8
20260503193527 80 311 5.2 9.6 0.00 0.00 0.00 36 1010.8
20260503193045 81 192 1.7 9.6 0.00 0.00 0.00 35 1010.8
20260503192524 80 296 0.9 9.6 0.00 0.00 0.00 36 1010.9
20260503192023 81 274 1.7 9.6 0.00 0.00 0.00 36 1011.0
20260503191538 80 297 3.5 9.6 0.00 0.00 0.00 35 1011.0
20260503191023 79 311 3.5 7.8 0.00 0.00 0.00 37 1011.2
20260503190523 79 310 2.6 8.7 0.00 0.00 0.00 37 1011.3
20260503190039 79 254 2.6 9.6 0.00 0.00 0.00 36 1011.4
20260503185523 80 281 0.9 9.6 0.00 0.00 0.00 35 1011.5
20260503185024 80 304 2.6 9.6 0.00 0.00 0.00 37 1011.6
20260503184539 79 233 2.6 9.6 0.00 0.00 0.00 37 1011.6
20260503184024 78 247 4.3 9.6 0.00 0.00 0.00 37 1011.7
20260503183522 78 282 2.6 8.7 0.00 0.00 0.00 38 1011.7
20260503183042 78 288 1.7 7.8 0.00 0.00 0.00 38 1011.7
20260503182523 78 294 1.7 10.4 0.00 0.00 0.00 40 1011.9
20260503182024 78 295 2.6 12.2 0.00 0.00 0.00 39 1012.0
20260503181539 77 296 5.2 12.2 0.00 0.00 0.00 38 1012.1
20260503181024 78 259 3.5 9.6 0.00 0.00 0.00 39 1012.1
20260503180524 78 287 1.7 6.1 0.00 0.00 0.00 39 1012.1
20260503180041 78 67 0.9 7.8 0.00 0.00 0.00 42 1012.2
20260503175523 77 121 1.7 8.7 0.00 0.00 0.00 43 1012.2
20260503175024 77 212 2.6 8.7 0.00 0.00 0.00 44 1012.2
20260503174537 76 263 1.7 10.4 0.00 0.00 0.00 45 1012.3
20260503174027 76 343 1.7 11.3 0.00 0.00 0.00 45 1012.3
20260503173523 75 321 2.6 13.0 0.00 0.00 0.00 46 1012.5
20260503173044 75 137 2.6 13.0 0.00 0.00 0.00 46 1012.5
20260503172522 75 175 1.7 8.7 0.00 0.00 0.00 45 1012.6
20260503172023 74 175 1.7 7.8 0.00 0.00 0.00 46 1012.7
20260503171547 74 13 2.6 8.7 0.00 0.00 0.00 46 1012.9
20260503171026 73 167 2.6 11.3 0.00 0.00 0.00 46 1013.0
20260503170524 73 202 1.7 11.3 0.00 0.00 0.00 47 1013.0
20260503150523 65 295 4.3 12.2 0.00 0.00 0.00 52 1013.5
20260503131028 55 120 1.7 9.6 0.00 0.00 0.00 61 1014.5
20260503130527 54 238 0.9 9.6 0.00 0.00 0.00 62 1014.6
20260503110524 51 135 2.6 11.3 0.00 0.00 0.00 54 1014.7
20260503081537 50 169 1.7 7.8 0.00 0.00 0.00 56 1016.1
20260503081029 50 206 1.7 7.8 0.00 0.00 0.00 55 1016.1
20260503080524 50 167 1.7 7.8 0.00 0.00 0.00 56 1016.1
20260503072525 50 0 0.0 7.0 0.00 0.00 0.00 58 1016.4
20260503072025 50 196 0.0 6.1 0.00 0.00 0.00 57 1016.5
20260503071551 50 0 0.9 5.2 0.00 0.00 0.00 57 1016.4
20260503071025 50 0 0.9 5.2 0.00 0.00 0.00 58 1016.5
20260503070527 50 0 0.9 5.2 0.00 0.00 0.00 58 1016.5
20260503055024 49 0 0.0 4.3 0.00 0.00 0.00 61 1017.5
20260503054549 49 0 0.0 4.3 0.00 0.00 0.00 61 1017.5
20260503054024 49 184 0.0 2.6 0.00 0.00 0.00 61 1017.6
20260503053523 49 161 0.0 1.7 0.00 0.00 0.00 60 1017.6
20260503053037 49 0 0.0 1.7 0.00 0.00 0.00 61 1017.7
20260503052523 49 0 0.0 1.7 0.00 0.00 0.00 61 1017.7
20260503052026 49 0 0.0 0.0 0.00 0.00 0.00 61 1017.7
20260503051537 49 0 0.0 0.0 0.00 0.00 0.00 61 1017.8
20260503051023 49 0 0.0 0.0 0.00 0.00 0.00 61 1017.8
20260503050524 48 0 0.0 0.0 0.00 0.00 0.00 61 1017.9
20260503050040 48 0 0.0 0.0 0.00 0.00 0.00 61 1018.0
20260503045524 49 0 0.0 0.0 0.00 0.00 0.00 62 1017.9
20260503045029 49 0 0.0 0.0 0.00 0.00 0.00 61 1018.0
20260503044537 49 0 0.0 0.0 0.00 0.00 0.00 61 1018.1
20260503044024 49 0 0.0 0.0 0.00 0.00 0.00 60 1018.2
20260503043528 49 0 0.0 0.0 0.00 0.00 0.00 60 1018.1
20260503043034 49 0 0.0 0.0 0.00 0.00 0.00 60 1018.1
20260503042525 50 0 0.0 0.0 0.00 0.00 0.00 60 1018.2
20260503042025 50 0 0.0 0.0 0.00 0.00 0.00 60 1018.2
20260503041543 50 0 0.0 0.0 0.00 0.00 0.00 59 1018.3
20260503041026 50 0 0.0 0.0 0.00 0.00 0.00 59 1018.2
20260503040524 50 0 0.0 0.0 0.00 0.00 0.00 58 1018.3
20260503040049 50 0 0.0 0.0 0.00 0.00 0.00 58 1018.3
20260503035525 50 0 0.0 0.0 0.00 0.00 0.00 59 1018.3
20260503035025 50 0 0.0 0.0 0.00 0.00 0.00 58 1018.3
20260503034535 50 0 0.0 0.0 0.00 0.00 0.00 58 1018.4
20260503034025 50 0 0.0 0.0 0.00 0.00 0.00 58 1018.4
20260503033524 51 0 0.0 0.0 0.00 0.00 0.00 57 1018.5
20260503033038 51 0 0.0 0.0 0.00 0.00 0.00 57 1018.6
20260503032527 51 0 0.0 0.0 0.00 0.00 0.00 57 1018.6
20260503032024 51 0 0.0 0.0 0.00 0.00 0.00 57 1018.7
20260503031536 52 0 0.0 0.0 0.00 0.00 0.00 56 1018.7
20260503031025 52 0 0.0 0.0 0.00 0.00 0.00 55 1018.8
20260503030524 52 0 0.0 0.0 0.00 0.00 0.00 55 1018.7
20260503030048 52 0 0.0 0.0 0.00 0.00 0.00 55 1018.8
20260503025522 52 0 0.0 0.0 0.00 0.00 0.00 54 1018.7
20260503025024 53 0 0.0 0.0 0.00 0.00 0.00 53 1018.8
20260503024537 53 0 0.0 0.0 0.00 0.00 0.00 53 1018.8
20260503024026 53 0 0.0 0.0 0.00 0.00 0.00 53 1018.7
20260503023521 53 0 0.0 0.0 0.00 0.00 0.00 53 1018.8
20260503023036 53 0 0.0 0.0 0.00 0.00 0.00 52 1018.8
20260503022523 53 0 0.0 0.0 0.00 0.00 0.00 51 1018.7
20260503022022 54 0 0.0 0.0 0.00 0.00 0.00 50 1018.7
20260503021536 54 0 0.0 0.0 0.00 0.00 0.00 49 1018.8
20260503021021 54 0 0.0 0.0 0.00 0.00 0.00 48 1018.8
20260503020522 55 0 0.0 0.0 0.00 0.00 0.00 47 1018.8
20260503020037 55 0 0.0 0.0 0.00 0.00 0.00 46 1018.8
20260503015527 55 0 0.0 0.0 0.00 0.00 0.00 44 1018.8
20260503015025 55 0 0.0 0.0 0.00 0.00 0.00 45 1018.7
20260503014556 56 0 0.0 0.0 0.00 0.00 0.00 45 1018.7
20260503014021 56 0 0.0 0.0 0.00 0.00 0.00 44 1018.7
20260503013523 57 0 0.0 0.0 0.00 0.00 0.00 43 1018.7
20260503013038 58 0 0.0 0.0 0.00 0.00 0.00 43 1018.7
20260503012524 58 0 0.0 0.0 0.00 0.00 0.00 42 1018.7
20260503012021 59 0 0.0 0.0 0.00 0.00 0.00 41 1018.6
20260503011535 59 0 0.0 0.0 0.00 0.00 0.00 40 1018.6
20260503011021 60 0 0.0 0.0 0.00 0.00 0.00 38 1018.7
20260503010523 61 0 0.0 0.0 0.00 0.00 0.00 37 1018.7
20260503010037 61 0 0.0 0.0 0.00 0.00 0.00 36 1018.6
20260503005521 62 0 0.0 0.0 0.00 0.00 0.00 35 1018.6
20260503005024 62 0 0.0 0.9 0.00 0.00 0.00 34 1018.7
20260503004537 63 0 0.0 4.3 0.00 0.00 0.00 33 1018.7
20260503004022 63 0 0.0 4.3 0.00 0.00 0.00 33 1018.8
20260503003524 63 165 0.0 3.5 0.00 0.00 0.00 32 1018.8
20260503003034 63 0 0.0 4.3 0.00 0.00 0.00 32 1018.7
20260503002525 64 0 0.0 5.2 0.00 0.00 0.00 31 1018.7
20260503002021 64 0 0.0 5.2 0.00 0.00 0.00 31 1018.7
20260503001552 64 0 0.0 3.5 0.00 0.00 0.00 31 1018.8
20260503001022 64 300 0.9 4.3 0.00 0.00 0.00 30 1018.8
20260503000523 65 290 0.0 4.3 0.00 0.00 0.00 30 1018.8
20260503000038 65 306 0.9 4.3 0.00 0.00 0.00 30 1018.9
20260502235521 65 0 0.0 6.1 0.00 0.00 0.00 31 1018.9
20260502235023 64 0 0.0 6.1 0.00 0.00 0.00 31 1018.9
20260502234541 64 0 0.9 6.1 0.00 0.00 0.00 31 1019.0
20260502234024 64 0 0.9 2.6 0.00 0.00 0.00 31 1019.0
20260502233523 64 0 0.0 5.2 0.00 0.00 0.00 29 1018.9
20260502233034 65 0 0.0 5.2 0.00 0.00 0.00 30 1019.0
20260502232526 65 282 1.7 5.2 0.00 0.00 0.00 30 1019.0
20260502232023 65 0 0.9 4.3 0.00 0.00 0.00 31 1019.1
20260502231536 65 0 0.0 2.6 0.00 0.00 0.00 30 1019.2